Location: Buckeye Ditch
(40.9104°N, 122.9517°W)
Time: 17:32:49
(UTC+00:00)

Explorer 7 - All Passes

Search period start: 19 May 2025 00:00
Search period end: 29 May 2025 00:00
Orbit: 446 x 574 km, 50.3° (Epoch: 18 May)

Date Brightness Start Highest point End Pass type
(mag) Time Alt. Az. Time Alt. Az. Time Alt. Az.
19 May - 10:24:46 10° SW 10:28:23 60° SE 10:32:11 10° ENE visible
19 May - 12:04:07 10° W 12:07:32 31° NNW 12:11:04 10° NE visible
19 May - 13:44:19 10° NW 13:47:21 21° N 13:50:28 10° NE daylight
19 May - 15:23:23 10° NW 15:27:07 35° NNE 15:30:59 10° E daylight
19 May - 17:02:11 10° WNW 17:06:14 56° SW 17:10:23 10° SE daylight
20 May - 10:06:11 10° SW 10:09:48 66° SE 10:13:36 10° ENE visible
20 May - 11:45:39 10° W 11:48:59 29° NNW 11:52:28 10° NE visible
20 May - 13:25:48 10° NW 13:28:49 21° N 13:31:55 10° NE daylight
20 May - 15:04:49 10° NW 15:08:34 36° NNE 15:12:26 10° E daylight
20 May - 16:43:38 10° WNW 16:47:38 51° SW 16:51:45 10° SE daylight
21 May - 09:47:36 10° SW 09:51:13 72° SE 09:55:00 10° ENE visible
21 May - 11:27:08 10° WNW 11:30:26 28° NNW 11:33:51 10° NE visible
21 May - 13:07:16 10° NW 13:10:16 21° N 13:13:21 10° NE daylight
21 May - 14:46:13 10° NW 14:49:59 38° NNE 14:53:52 10° E daylight
21 May - 16:25:05 10° WNW 16:29:01 47° SW 16:33:04 10° SSE daylight
22 May - 07:53:56 10° SE 07:54:21 10° SE 07:54:46 10° ESE night (unlit)
22 May - 09:29:00 10° SW 09:32:36 78° SE 09:36:24 10° ENE visible
22 May - 11:08:37 10° WNW 11:11:51 27° NNW 11:15:12 10° NE visible
22 May - 12:48:43 10° NW 12:51:41 21° N 12:54:46 10° NE daylight
22 May - 14:27:37 10° NW 14:31:23 40° NNE 14:35:17 10° E daylight
22 May - 16:06:30 10° WNW 16:10:22 43° SW 16:14:22 10° SSE daylight
23 May - 07:34:33 10° SSE 07:35:40 11° SE 07:36:49 10° ESE night (unlit)
23 May - 09:10:23 10° SW 09:13:59 85° SE 09:17:45 10° ENE visible
23 May - 10:50:06 10° WNW 10:53:16 26° NNW 10:56:33 10° NE visible
23 May - 12:30:08 10° NW 12:33:06 21° N 12:36:10 10° NE daylight
23 May - 14:08:59 10° NW 14:12:46 42° NNE 14:16:41 10° E daylight
23 May - 15:47:55 10° WNW 15:51:43 39° SW 15:55:38 10° SSE daylight
24 May - 07:15:29 10° SSE 07:17:00 12° SE 07:18:32 10° ESE night (unlit)
24 May - 08:51:46 10° SW 08:55:21 88° NNW 08:59:05 10° ENE visible
24 May - 10:31:33 10° WNW 10:34:39 25° NNW 10:37:53 10° NE visible
24 May - 12:11:33 10° NW 12:14:30 21° N 12:17:33 10° ENE visible
24 May - 13:50:21 10° NW 13:54:08 44° NNE 13:58:03 10° E daylight
24 May - 15:29:19 10° WNW 15:33:02 36° SW 15:36:52 10° SSE daylight
25 May - 06:56:30 10° SSE 06:58:17 13° SE 07:00:08 10° E night (unlit)
25 May - 08:33:07 10° WSW 08:36:42 82° NNW 08:40:25 10° NE visible
25 May - 10:12:59 10° WNW 10:16:02 24° NNW 10:19:12 10° NE visible
25 May - 11:52:56 10° NW 11:55:53 21° N 11:58:55 10° ENE visible
25 May - 13:31:42 10° NW 13:35:28 46° NNE 13:39:25 10° E daylight
25 May - 15:10:43 10° WNW 15:14:20 33° SW 15:18:05 10° SSE daylight
26 May - 06:37:33 10° SSE 06:39:36 15° SE 06:41:39 10° E night (unlit)
26 May - 08:14:28 10° WSW 08:18:02 76° NNW 08:21:44 10° NE visible
26 May - 09:54:23 10° WNW 09:57:23 23° NNW 10:00:30 10° NE visible
26 May - 11:34:17 10° NW 11:37:14 21° N 11:40:16 10° ENE visible
26 May - 13:13:01 10° NW 13:16:48 49° NNE 13:20:44 10° ESE daylight
26 May - 14:52:05 10° WNW 14:55:38 31° SW 14:59:16 10° SSE daylight
27 May - 06:18:39 10° S 06:20:52 16° SE 06:23:08 10° E night (unlit)
27 May - 07:55:48 10° WSW 07:59:21 70° NNW 08:03:01 10° NE visible
27 May - 09:35:47 10° WNW 09:38:44 22° NNW 09:41:46 10° NE visible
27 May - 11:15:38 10° NW 11:18:35 21° N 11:21:37 10° ENE visible
27 May - 12:54:19 10° NW 12:58:06 51° NNE 13:02:03 10° ESE daylight
27 May - 14:33:28 10° WNW 14:36:54 28° SW 14:40:26 10° SSE daylight
28 May - 05:59:44 10° S 06:02:08 17° SE 06:04:34 10° E night (unlit)
28 May - 07:37:08 10° WSW 07:40:39 64° NNW 07:44:18 10° NE visible
28 May - 09:17:10 10° WNW 09:20:04 22° N 09:23:03 10° NE visible
28 May - 10:56:57 10° NW 10:59:54 21° N 11:02:57 10° ENE visible
28 May - 12:35:37 10° NW 12:39:23 55° NNE 12:43:20 10° ESE daylight
28 May - 14:14:50 10° WNW 14:18:09 26° SW 14:21:33 10° SSE daylight
